This is the latest recevied weather packets stored in our database for station/object W0JRT-6. If no packets are shown the sender has not sent any weather packets the latest 10 day(s).
| Time | Temp. | Humidity | Pressure | Rain* | Wind** | Luminosity | Snow |
|---|---|---|---|---|---|---|---|
| 1777968605 | 13.33° C | 49% | 1004.3 hPa | 0 mm | - | - | - |
| 1777968008 | 13.33° C | 48% | 1004.6 hPa | 0 mm | - | - | - |
| 1777967402 | 13.89° C | 48% | 1005.6 hPa | 0 mm | - | - | - |
| 1777966808 | 13.33° C | - | 1006.2 hPa | 0 mm | - | - | - |
| 1777966209 | 13.33° C | 58% | 1005.6 hPa | 0 mm | - | - | - |
| 1777965002 | 13.89° C | 54% | 1005.2 hPa | 0 mm | - | - | - |
| 1777964406 | 15° C | 48% | 1005.4 hPa | 0 mm | - | - | - |
| 1777963805 | 15.56° C | 44% | 1005.3 hPa | 0 mm | - | - | - |
| 1777963199 | 15.56° C | 43% | 1004.9 hPa | 0 mm | - | - | - |
| 1777962598 | 16.11° C | 41% | 1003.8 hPa | 0 mm | - | - | - |
| 1777962008 | 16.67° C | 41% | 1003.2 hPa | 0 mm | - | - | - |
| 1777961399 | 16.67° C | 38% | 1002.8 hPa | 0 mm | - | - | - |
| 1777960802 | 17.22° C | 39% | 1002.5 hPa | 0 mm | - | - | - |
| 1777960207 | 17.22° C | 38% | 1002 hPa | 0 mm | - | - | - |
| 1777959600 | 17.78° C | 37% | 1001.8 hPa | 0 mm | - | - | - |
| 1777959002 | 18.33° C | 36% | 1001.5 hPa | 0 mm | - | - | - |
| 1777958407 | 19.44° C | 36% | 1001.5 hPa | 0 mm | - | - | - |
| 1777957801 | 20° C | 35% | 1001.4 hPa | 0 mm | - | - | - |
| 1777957208 | 20° C | 36% | 1000.9 hPa | 0 mm | - | - | - |
| 1777955406 | 21.11° C | 38% | 1000.2 hPa | 0 mm | - | - | - |
| 1777954803 | 21.11° C | 38% | 999.9 hPa | 0 mm | - | - | - |
| 1777954205 | 21.67° C | 39% | 1000.3 hPa | 0 mm | - | - | - |
| 1777953609 | 21.67° C | 38% | 1000.3 hPa | 0 mm | - | - | - |
| 1777952997 | 22.22° C | 39% | 1000.3 hPa | 0 mm | - | - | - |
| 1777952400 | 22.22° C | 42% | 1000 hPa | 0 mm | - | - | - |
* Rain since midnight (hover to see other rain measurements)
** Current wind speed in m/s (hover to see current wind gust speed)